STARLINK-35869 (66353 NORAD) Tracking and Keplerian Element Data

This shows tracking and keplerian element data for the satellite.

Feedback or suggestion? Click here.




ElementValue
Catalog66353
NameSTARLINK-35869
Epoch Orbit595
Epoch Day354.25003472
Epoch Year2025
RAAN241.0849
Inclination53.1599
Eccentricity0.0001319
Argument of Perigee56.226
Mean Anonmoly106.7974
Mean Motion15.30186415
Decay Rate0.00013829
L11 66353U 25254F 25354.25003472 .00013829 00000+0 47837-3 0 9997
L22 66353 53.1599 241.0849 0001319 56.2260 106.7974 15.30186415 5957



Live tracking and technical data element details for STARLINK-35869 (NORAD 66353). STARLINK-35869 can be tracked NOW for your location showing map with azimuth and elevation plus other details from your city location.







IsCatalogInMostPopularTable: catalog: 66353, numindb: 7
Update: records affected: 1



GetName: 66353 STARLINK-35869

Hit Count: updated at: Tue, 21 Apr 2026 20:41:07 GMT